CST,Max TemperatureF,Mean TemperatureF,Min TemperatureF,Max Dew PointF,MeanDew PointF,Min DewpointF,Max Humidity, Mean Humidity, Min Humidity, Max Sea Level PressureIn, Mean Sea Level PressureIn, Min Sea Level PressureIn, Max VisibilityMiles, Mean VisibilityMiles, Min VisibilityMiles, Max Wind SpeedMPH, Mean Wind SpeedMPH, Max Gust SpeedMPH,PrecipitationIn, CloudCover, Events, WindDirDegrees
2013-2-1,24,10,-5,19,0,-15,80,69,60,30.36,30.19,29.98,10,10,10,25,13,32,0.00,5,Snow,222
2013-2-2,35,24,14,30,17,7,100,78,58,30.18,30.07,29.98,10,9,0,30,14,40,0.00,6,Rain-Snow,299
2013-2-3,33,24,15,27,19,9,86,74,60,30.15,29.99,29.74,10,10,8,24,18,32,0.00,2,,247
2013-2-4,33,24,15,28,19,12,93,83,69,30.02,29.91,29.73,10,10,6,20,12,26,0.00,6,Rain-Snow,317
2013-2-5,44,34,24,34,27,21,100,82,61,30.08,29.91,29.75,10,9,6,23,14,31,0.00,2,,289
2013-2-6,46,35,24,37,32,25,100,90,66,30.08,29.97,29.86,10,8,4,18,7,26,0.00,4,,157
2013-2-7,35,30,26,34,29,23,100,93,86,30.22,30.03,29.88,10,6,2,22,12,26,0.00,8,,345
2013-2-8,28,26,23,25,23,21,93,88,80,30.34,30.26,30.18,10,10,8,18,11,23,0.00,8,,110
2013-2-9,42,34,26,34,30,25,100,90,70,30.19,29.99,29.76,10,8,2,24,16,29,0.03,6,Rain,150
2013-2-10,44,37,30,43,34,25,100,93,75,29.75,29.43,29.23,10,6,0,38,19,45,0.02,8,Rain-Snow,184
2013-2-11,30,27,24,25,22,21,86,79,74,30.12,29.96,29.62,10,10,9,36,27,47,0.00,8,Rain,297
2013-2-12,44,32,19,27,23,18,93,74,43,30.13,29.98,29.86,10,10,9,22,11,26,0.00,1,,252
2013-2-13,50,36,23,32,28,21,93,74,43,29.87,29.76,29.67,10,10,10,21,10,24,0.00,1,,263
2013-2-14,41,31,19,32,25,10,87,74,56,30.21,29.95,29.72,10,10,8,29,17,34,0.00,5,,316
2013-2-15,28,21,14,16,11,7,86,68,51,30.32,30.29,30.22,10,10,10,18,12,23,0.00,3,Snow,330
2013-2-16,37,22,8,23,14,5,86,70,38,30.29,30.14,30.04,10,10,10,13,7,17,0.00,4,Snow,226
2013-2-17,50,34,19,30,25,18,93,70,40,30.03,29.83,29.58,10,10,9,23,10,29,0.00,1,,153
2013-2-18,37,26,14,32,21,5,93,75,59,29.96,29.71,29.55,10,10,1,36,16,43,0.00,3,Rain-Snow,308
2013-2-19,21,13,5,5,0,-2,79,58,39,30.37,30.18,29.97,10,10,2,30,24,40,0.00,3,Rain-Snow,315
2013-2-20,23,10,-2,9,-1,-9,78,58,36,30.40,30.33,30.25,10,10,10,14,8,14,0.00,2,Snow,69
2013-2-21,26,20,15,21,14,9,93,75,50,30.29,30.07,29.84,10,7,0,26,15,33,0.03,6,Snow,81
2013-2-22,23,16,10,19,16,9,93,86,74,29.97,29.89,29.79,10,7,1,21,15,24,0.00,7,Rain-Snow,321
2013-2-23,28,16,5,23,11,1,100,84,74,29.96,29.90,29.84,10,9,1,12,5,,0.00,0,Snow,219
2013-2-24,33,19,5,28,19,3,100,88,75,30.06,29.99,29.90,9,6,0,7,1,,0.00,4,Fog-Snow,127
2013-2-25,30,28,26,30,28,27,100,99,93,30.09,30.02,29.93,5,2,0,14,6,18,0.00,8,Fog-Snow,5
2013-2-26,30,27,24,28,26,25,100,94,86,29.92,29.83,29.76,6,3,0,22,15,28,0.00,5,Rain-Snow,3
2013-2-27,35,29,23,27,23,19,93,84,65,30.03,29.90,29.82,10,9,6,29,19,37,0.00,6,Rain,332
2013-2-28,30,26,21,25,23,19,93,86,75,30.18,30.13,30.04,10,10,8,21,16,22,0.00,7,Rain,330